Tracking 20239 objects as of 23-Jan-2020
HD Live streaming from Space Station
objects crossing your sky now

FENGYUN 1C DEB

Track FENGYUN 1C DEB now!
10-day predictions


NORAD ID: 32350
Int'l Code: 1999-025CYT
Perigee: 548.5 km
Apogee: 1,004.8 km
Inclination: 98.5 °
Period: 100.2 minutes
Semi major axis: 7147 km
RCS: 0.0139 m2 (small)
Launch date: May 10, 1999
Source: People's Republic of China (PRC)
Launch site: Taiyaun Space Center, China (TSC)

Note: This is SATELLITE DEBRIS
aabbcc
Your satellite tracking list
Your tracking list is empty




NASA's NSSDC Master Catalog

Two Line Element Set (TLE):
1 32350U 99025CYT 20023.41779775  .00000191  00000-0  48355-4 0  9992
2 32350  98.5202  80.4279 0319213 305.4825  51.6957 14.36677075665542
Source of the keplerian elements: AFSPC